When you browse on this site, cookies collect data to enhance your experience and personalize the content and advertising you see.
Visit our Privacy Policy to learn more. By continuing to use the site, you agree to this use of cookies and data.

Hourly Weather Rostock

Today, 4 August, Tuesday

Time Temperature Precipitation Wind Pressure Humidity
00:00 +13°C° 0 mm 3 mps 758 mmHg 87%
01:00 +13°C° 0 mm 3 mps 758 mmHg 89%
02:00 +14°C° 0 mm 2 mps 758 mmHg 89%
03:00 +14°C° 0 mm 2 mps 759 mmHg 90%
04:00 +14°C° 0 mm 2 mps 759 mmHg 91%
05:00 +15°C° 0 mm 2 mps 759 mmHg 88%
06:00 +16°C° 0 mm 3 mps 759 mmHg 85%
07:00 +17°C° 0 mm 3 mps 759 mmHg 82%
08:00 +18°C° 0 mm 3 mps 759 mmHg 77%
09:00 +18°C° 0 mm 3 mps 759 mmHg 72%
10:00 +19°C° 0 mm 3 mps 760 mmHg 67%
11:00 +20°C° 0 mm 4 mps 760 mmHg 65%
12:00 +20°C° 0 mm 4 mps 760 mmHg 62%
13:00 +20°C° 0 mm 4 mps 760 mmHg 60%
14:00 +20°C° 0 mm 4 mps 760 mmHg 58%
15:00 +20°C° 0 mm 3 mps 760 mmHg 57%
16:00 +20°C° 0 mm 3 mps 760 mmHg 55%
17:00 +19°C° 0 mm 2 mps 760 mmHg 60%
18:00 +18°C° 0 mm 2 mps 760 mmHg 64%
19:00 +19°C° 0 mm 1 mps 760 mmHg 69%
20:00 +16°C° 0 mm 1 mps 761 mmHg 72%
21:00 +15°C° 0 mm 1 mps 761 mmHg 75%
22:00 +14°C° 0 mm 2 mps 761 mmHg 77%
23:00 +14°C° 0 mm 2 mps 761 mmHg 80%

Tomorrow, 5 August, Wednesday

Time Temperature Precipitation Wind Pressure Humidity
00:00 +13°C° 0 mm 2 mps 761 mmHg 82%
01:00 +13°C° 0 mm 2 mps 761 mmHg 84%
02:00 +13°C° 0 mm 2 mps 761 mmHg 84%
03:00 +12°C° 0 mm 3 mps 761 mmHg 84%
04:00 +11°C° 0 mm 3 mps 762 mmHg 84%
05:00 +12°C° 0 mm 3 mps 762 mmHg 82%
06:00 +14°C° 0 mm 3 mps 762 mmHg 80%
07:00 +15°C° 0 mm 4 mps 762 mmHg 78%
08:00 +18°C° 0 mm 4 mps 762 mmHg 72%
09:00 +20°C° 0 mm 4 mps 762 mmHg 65%
10:00 +22°C° 0 mm 4 mps 762 mmHg 59%
11:00 +22°C° 0 mm 4 mps 762 mmHg 56%
12:00 +23°C° 0 mm 4 mps 762 mmHg 53%
13:00 +25°C° 0 mm 4 mps 762 mmHg 51%
14:00 +26°C° 0 mm 4 mps 762 mmHg 50%
15:00 +26°C° 0 mm 3 mps 762 mmHg 50%
16:00 +26°C° 0 mm 3 mps 762 mmHg 50%
17:00 +25°C° 0 mm 2 mps 762 mmHg 55%
18:00 +24°C° 0 mm 2 mps 762 mmHg 61%
19:00 +23°C° 0 mm 1 mps 762 mmHg 66%
20:00 +22°C° 0 mm 1 mps 763 mmHg 67%
21:00 +19°C° 0 mm 2 mps 763 mmHg 68%
22:00 +18°C° 0 mm 2 mps 764 mmHg 69%
23:00 +18°C° 0 mm 2 mps 764 mmHg 69%

Day after tomorrow, 6 August, Thursday

Time Temperature Precipitation Wind Pressure Humidity
00:00 +17°C° 0 mm 2 mps 764 mmHg 69%
01:00 +17°C° 0 mm 2 mps 764 mmHg 69%
02:00 +17°C° 0 mm 2 mps 764 mmHg 68%
03:00 +16°C° 0 mm 3 mps 765 mmHg 68%
04:00 +16°C° 0 mm 3 mps 765 mmHg 67%
05:00 +17°C° 0 mm 3 mps 765 mmHg 68%
06:00 +18°C° 0 mm 3 mps 765 mmHg 69%
07:00 +19°C° 0 mm 3 mps 765 mmHg 70%
08:00 +21°C° 0 mm 3 mps 766 mmHg 65%
09:00 +24°C° 0 mm 2 mps 766 mmHg 59%
10:00 +26°C° 0 mm 2 mps 766 mmHg 54%
11:00 +27°C° 0 mm 2 mps 766 mmHg 51%
12:00 +27°C° 0 mm 2 mps 766 mmHg 48%
13:00 +28°C° 0 mm 2 mps 766 mmHg 46%
14:00 +28°C° 0 mm 2 mps 766 mmHg 46%
15:00 +28°C° 0 mm 2 mps 766 mmHg 46%
16:00 +28°C° 0 mm 2 mps 766 mmHg 46%
17:00 +27°C° 0 mm 2 mps 766 mmHg 53%
18:00 +26°C° 0 mm 3 mps 766 mmHg 59%
19:00 +24°C° 0 mm 3 mps 766 mmHg 66%
20:00 +22°C° 0 mm 3 mps 766 mmHg 66%
21:00 +21°C° 0 mm 3 mps 767 mmHg 67%
22:00 +19°C° 0 mm 3 mps 767 mmHg 68%
23:00 +19°C° 0 mm 3 mps 767 mmHg 70%

7 August, Friday

Time Temperature Precipitation Wind Pressure Humidity
00:00 +18°C° 0 mm 3 mps 767 mmHg 72%
01:00 +18°C° 0 mm 3 mps 767 mmHg 74%
02:00 +17°C° 0 mm 3 mps 767 mmHg 74%
03:00 +17°C° 0 mm 3 mps 767 mmHg 74%
04:00 +17°C° 0 mm 2 mps 767 mmHg 75%
05:00 +18°C° 0 mm 2 mps 767 mmHg 73%
06:00 +19°C° 0 mm 2 mps 767 mmHg 72%
07:00 +20°C° 0 mm 2 mps 767 mmHg 71%
08:00 +21°C° 0 mm 3 mps 767 mmHg 66%
09:00 +24°C° 0 mm 3 mps 767 mmHg 60%
10:00 +25°C° 0 mm 3 mps 767 mmHg 55%
11:00 +26°C° 0 mm 3 mps 767 mmHg 54%
12:00 +27°C° 0 mm 4 mps 767 mmHg 53%
13:00 +28°C° 0 mm 4 mps 767 mmHg 51%
14:00 +28°C° 0 mm 4 mps 766 mmHg 53%
15:00 +28°C° 0 mm 5 mps 766 mmHg 55%
16:00 +28°C° 0 mm 5 mps 766 mmHg 56%
17:00 +26°C° 0 mm 5 mps 766 mmHg 62%
18:00 +25°C° 0 mm 5 mps 766 mmHg 68%
19:00 +22°C° 0 mm 4 mps 765 mmHg 74%
20:00 +21°C° 0 mm 4 mps 765 mmHg 74%
21:00 +21°C° 0 mm 4 mps 765 mmHg 75%
22:00 +20°C° 0 mm 4 mps 765 mmHg 75%
23:00 +20°C° 0 mm 3 mps 765 mmHg 74%

8 August, Saturday

Time Temperature Precipitation Wind Pressure Humidity
00:00 +21°C° 0 mm 3 mps 765 mmHg 73%
01:00 +21°C° 0 mm 3 mps 765 mmHg 72%
02:00 +21°C° 0 mm 3 mps 765 mmHg 76%
03:00 +21°C° 0 mm 3 mps 764 mmHg 79%
04:00 +21°C° 0 mm 3 mps 764 mmHg 83%
05:00 +21°C° 0 mm 3 mps 764 mmHg 83%
06:00 +22°C° 0 mm 3 mps 764 mmHg 83%
07:00 +22°C° 0 mm 3 mps 764 mmHg 84%
08:00 +25°C° 0.1 mm 3 mps 764 mmHg 77%
09:00 +27°C° 0.1 mm 3 mps 763 mmHg 71%
10:00 +28°C° 0.1 mm 2 mps 763 mmHg 65%
11:00 +29°C° 0.2 mm 3 mps 763 mmHg 60%
12:00 +30°C° 0.2 mm 3 mps 763 mmHg 55%
13:00 +31°C° 0.2 mm 3 mps 762 mmHg 50%
14:00 +31°C° 0 mm 3 mps 762 mmHg 51%
15:00 +31°C° 0 mm 3 mps 762 mmHg 52%
16:00 +31°C° 0 mm 3 mps 762 mmHg 53%
17:00 +29°C° 0.1 mm 3 mps 762 mmHg 61%
18:00 +28°C° 0.1 mm 4 mps 761 mmHg 68%
19:00 +26°C° 0.1 mm 4 mps 761 mmHg 76%
20:00 +25°C° 0 mm 4 mps 761 mmHg 80%
21:00 +23°C° 0 mm 4 mps 761 mmHg 83%
22:00 +22°C° 0 mm 3 mps 761 mmHg 87%
23:00 +22°C° 0 mm 3 mps 761 mmHg 86%

9 August, Sunday

Time Temperature Precipitation Wind Pressure Humidity
00:00 +21°C° 0 mm 3 mps 761 mmHg 86%
01:00 +21°C° 0 mm 2 mps 761 mmHg 86%
02:00 +21°C° 0 mm 2 mps 761 mmHg 86%
03:00 +22°C° 0 mm 1 mps 760 mmHg 85%
04:00 +21°C° 0 mm 1 mps 760 mmHg 85%
05:00 +22°C° 0.1 mm 1 mps 760 mmHg 82%
06:00 +23°C° 0.1 mm 2 mps 761 mmHg 80%
07:00 +24°C° 0.1 mm 2 mps 761 mmHg 78%
08:00 +25°C° 0.2 mm 3 mps 761 mmHg 77%
09:00 +25°C° 0.2 mm 4 mps 761 mmHg 77%
10:00 +26°C° 0.2 mm 5 mps 761 mmHg 76%
11:00 +25°C° 0.1 mm 5 mps 761 mmHg 76%
12:00 +24°C° 0.1 mm 6 mps 761 mmHg 76%
13:00 +24°C° 0.1 mm 6 mps 761 mmHg 76%
14:00 +23°C° 0 mm 6 mps 761 mmHg 74%
15:00 +23°C° 0 mm 6 mps 761 mmHg 72%
16:00 +22°C° 0 mm 6 mps 761 mmHg 70%
17:00 +21°C° 0 mm 5 mps 761 mmHg 69%
18:00 +20°C° 0 mm 5 mps 762 mmHg 69%
19:00 +19°C° 0 mm 5 mps 762 mmHg 69%
20:00 +17°C° 0 mm 5 mps 762 mmHg 69%
21:00 +17°C° 0 mm 5 mps 762 mmHg 70%
22:00 +16°C° 0 mm 5 mps 763 mmHg 71%
23:00 +15°C° 0 mm 5 mps 763 mmHg 74%
Show more